When you browse on this site, cookies collect data to enhance your experience and personalize the content and advertising you see.
Visit our Privacy Policy to learn more. By continuing to use the site, you agree to this use of cookies and data.
  • In Österreich
  • Länderverzeichnis
  • Für 7 Tage
  • Wassertemperatur
  • Satellitenkarten
  • Wetterkarte
  • News
  • Widgets
  • user-avatar
    Anmelden

    Stündliche Wetter Spring Valley

    Heute, 22 Juli, Montag

    Zeit Temperatur Niederschläge Wind Luftdruck Luftfeuchtigkeit
    00:00 +26°C° 0 mm 2 m/S 746 mmHg 79%
    01:00 +26°C° 0 mm 1 m/S 746 mmHg 81%
    02:00 +25°C° 0.4 mm 1 m/S 746 mmHg 81%
    03:00 +25°C° 0.4 mm 1 m/S 746 mmHg 80%
    04:00 +24°C° 0.4 mm 1 m/S 745 mmHg 80%
    05:00 +24°C° 0.1 mm 1 m/S 746 mmHg 77%
    06:00 +25°C° 0.1 mm 1 m/S 746 mmHg 73%
    07:00 +25°C° 0.1 mm 1 m/S 746 mmHg 69%
    08:00 +27°C° 0.1 mm 1 m/S 746 mmHg 62%
    09:00 +29°C° 0.1 mm 1 m/S 746 mmHg 54%
    10:00 +31°C° 0.1 mm 2 m/S 746 mmHg 46%
    11:00 +32°C° 0 mm 2 m/S 745 mmHg 44%
    12:00 +34°C° 0 mm 2 m/S 745 mmHg 43%
    13:00 +35°C° 0 mm 2 m/S 745 mmHg 42%
    14:00 +31°C° 1.2 mm 2 m/S 745 mmHg 55%
    15:00 +29°C° 1.2 mm 2 m/S 744 mmHg 68%
    16:00 +26°C° 1.2 mm 3 m/S 744 mmHg 81%
    17:00 +25°C° 1.3 mm 3 m/S 744 mmHg 83%
    18:00 +24°C° 1.3 mm 3 m/S 744 mmHg 86%
    19:00 +21°C° 1.3 mm 2 m/S 744 mmHg 89%
    20:00 +21°C° 0.6 mm 2 m/S 744 mmHg 89%
    21:00 +22°C° 0.6 mm 1 m/S 744 mmHg 89%
    22:00 +22°C° 0.6 mm 1 m/S 744 mmHg 90%
    23:00 +22°C° 0.9 mm 1 m/S 744 mmHg 90%

    Morgen, 23 Juli, Dienstag

    Zeit Temperatur Niederschläge Wind Luftdruck Luftfeuchtigkeit
    00:00 +22°C° 0.9 mm 1 m/S 744 mmHg 90%
    01:00 +22°C° 0.9 mm 1 m/S 744 mmHg 91%
    02:00 +22°C° 1.6 mm 1 m/S 744 mmHg 91%
    03:00 +22°C° 1.6 mm 1 m/S 743 mmHg 91%
    04:00 +22°C° 1.6 mm 1 m/S 743 mmHg 91%
    05:00 +21°C° 7.4 mm 2 m/S 743 mmHg 92%
    06:00 +20°C° 7.4 mm 3 m/S 743 mmHg 93%
    07:00 +19°C° 7.4 mm 4 m/S 743 mmHg 94%
    08:00 +20°C° 1.1 mm 3 m/S 744 mmHg 92%
    09:00 +20°C° 1.1 mm 3 m/S 744 mmHg 91%
    10:00 +20°C° 1.1 mm 2 m/S 744 mmHg 89%
    11:00 +21°C° 0.4 mm 2 m/S 745 mmHg 85%
    12:00 +23°C° 0.4 mm 1 m/S 745 mmHg 80%
    13:00 +24°C° 0.4 mm 1 m/S 745 mmHg 76%
    14:00 +24°C° 0.5 mm 1 m/S 745 mmHg 75%
    15:00 +25°C° 0.5 mm 1 m/S 745 mmHg 73%
    16:00 +25°C° 0.5 mm 1 m/S 745 mmHg 72%
    17:00 +24°C° 0.5 mm 1 m/S 746 mmHg 74%
    18:00 +24°C° 0.5 mm 1 m/S 746 mmHg 77%
    19:00 +23°C° 0.5 mm 1 m/S 746 mmHg 79%
    20:00 +22°C° 0.7 mm 1 m/S 746 mmHg 80%
    21:00 +22°C° 0.7 mm 1 m/S 746 mmHg 80%
    22:00 +22°C° 0.7 mm 1 m/S 747 mmHg 81%
    23:00 +21°C° 0 mm 1 m/S 747 mmHg 83%

    übermorgen, 24 Juli, Mittwoch

    Zeit Temperatur Niederschläge Wind Luftdruck Luftfeuchtigkeit
    00:00 +21°C° 0 mm 1 m/S 747 mmHg 84%
    01:00 +20°C° 0 mm 2 m/S 747 mmHg 86%
    02:00 +19°C° 0.2 mm 2 m/S 747 mmHg 87%
    03:00 +19°C° 0.2 mm 2 m/S 747 mmHg 89%
    04:00 +18°C° 0.2 mm 2 m/S 747 mmHg 90%
    05:00 +19°C° 0.2 mm 2 m/S 748 mmHg 88%
    06:00 +19°C° 0.2 mm 2 m/S 748 mmHg 85%
    07:00 +20°C° 0.2 mm 2 m/S 749 mmHg 83%
    08:00 +21°C° 0 mm 3 m/S 749 mmHg 71%
    09:00 +24°C° 0 mm 3 m/S 749 mmHg 59%
    10:00 +26°C° 0 mm 3 m/S 749 mmHg 48%
    11:00 +27°C° 0 mm 3 m/S 749 mmHg 43%
    12:00 +28°C° 0 mm 2 m/S 749 mmHg 39%
    13:00 +29°C° 0 mm 2 m/S 749 mmHg 35%
    14:00 +29°C° 0 mm 2 m/S 749 mmHg 35%
    15:00 +29°C° 0 mm 2 m/S 749 mmHg 35%
    16:00 +29°C° 0 mm 2 m/S 748 mmHg 35%
    17:00 +28°C° 0 mm 1 m/S 749 mmHg 42%
    18:00 +26°C° 0 mm 1 m/S 749 mmHg 49%
    19:00 +25°C° 0 mm 1 m/S 750 mmHg 56%
    20:00 +24°C° 0 mm 1 m/S 750 mmHg 59%
    21:00 +23°C° 0 mm 1 m/S 750 mmHg 62%
    22:00 +22°C° 0 mm 1 m/S 751 mmHg 65%
    23:00 +21°C° 0 mm 1 m/S 751 mmHg 67%

    25 Juli, Donnerstag

    Zeit Temperatur Niederschläge Wind Luftdruck Luftfeuchtigkeit
    00:00 +21°C° 0 mm 1 m/S 751 mmHg 68%
    01:00 +20°C° 0 mm 1 m/S 751 mmHg 69%
    02:00 +19°C° 0 mm 1 m/S 751 mmHg 71%
    03:00 +19°C° 0 mm 1 m/S 751 mmHg 73%
    04:00 +18°C° 0 mm 1 m/S 751 mmHg 74%
    05:00 +19°C° 0 mm 1 m/S 752 mmHg 71%
    06:00 +20°C° 0 mm 1 m/S 752 mmHg 68%
    07:00 +20°C° 0 mm 2 m/S 753 mmHg 66%
    08:00 +23°C° 0 mm 2 m/S 753 mmHg 57%
    09:00 +25°C° 0 mm 2 m/S 753 mmHg 49%
    10:00 +27°C° 0 mm 2 m/S 753 mmHg 41%
    11:00 +29°C° 0 mm 2 m/S 753 mmHg 38%
    12:00 +30°C° 0 mm 1 m/S 753 mmHg 35%
    13:00 +31°C° 0 mm 1 m/S 752 mmHg 32%
    14:00 +31°C° 0 mm 1 m/S 752 mmHg 33%
    15:00 +31°C° 0 mm 1 m/S 752 mmHg 33%
    16:00 +30°C° 0 mm 1 m/S 752 mmHg 34%
    17:00 +29°C° 0 mm 1 m/S 753 mmHg 40%
    18:00 +27°C° 0 mm 1 m/S 753 mmHg 47%
    19:00 +26°C° 0 mm 1 m/S 753 mmHg 53%
    20:00 +25°C° 0 mm 1 m/S 754 mmHg 55%
    21:00 +24°C° 0 mm 1 m/S 754 mmHg 56%
    22:00 +23°C° 0 mm 1 m/S 754 mmHg 58%
    23:00 +23°C° 0 mm 1 m/S 754 mmHg 60%

    26 Juli, Freitag

    Zeit Temperatur Niederschläge Wind Luftdruck Luftfeuchtigkeit
    00:00 +22°C° 0 mm 1 m/S 754 mmHg 62%
    01:00 +22°C° 0 mm 1 m/S 754 mmHg 63%
    02:00 +22°C° 0 mm 1 m/S 754 mmHg 65%
    03:00 +21°C° 0 mm 1 m/S 754 mmHg 66%
    04:00 +21°C° 0 mm 1 m/S 754 mmHg 68%
    05:00 +22°C° 0 mm 1 m/S 755 mmHg 66%
    06:00 +23°C° 0 mm 1 m/S 755 mmHg 64%
    07:00 +24°C° 0 mm 1 m/S 756 mmHg 62%
    08:00 +26°C° 0 mm 1 m/S 756 mmHg 56%
    09:00 +27°C° 0 mm 0 m/S 756 mmHg 50%
    10:00 +29°C° 0 mm 0 m/S 756 mmHg 44%
    11:00 +30°C° 0 mm 0 m/S 756 mmHg 41%
    12:00 +31°C° 0 mm 0 m/S 756 mmHg 38%
    13:00 +32°C° 0 mm 0 m/S 756 mmHg 35%
    14:00 +34°C° 0 mm 1 m/S 756 mmHg 36%
    15:00 +33°C° 0 mm 1 m/S 756 mmHg 36%
    16:00 +33°C° 0 mm 1 m/S 755 mmHg 37%
    17:00 +31°C° 0 mm 2 m/S 756 mmHg 43%
    18:00 +29°C° 0 mm 2 m/S 756 mmHg 49%
    19:00 +27°C° 0 mm 2 m/S 756 mmHg 55%
    20:00 +26°C° 0 mm 2 m/S 756 mmHg 56%
    21:00 +25°C° 0 mm 2 m/S 756 mmHg 56%
    22:00 +24°C° 0 mm 2 m/S 757 mmHg 57%
    23:00 +24°C° 0 mm 2 m/S 757 mmHg 59%

    27 Juli, Samstag

    Zeit Temperatur Niederschläge Wind Luftdruck Luftfeuchtigkeit
    00:00 +23°C° 0 mm 1 m/S 757 mmHg 61%
    01:00 +23°C° 0 mm 1 m/S 757 mmHg 63%
    02:00 +22°C° 0 mm 1 m/S 757 mmHg 64%
    03:00 +22°C° 0 mm 1 m/S 757 mmHg 65%
    04:00 +20°C° 0 mm 0 m/S 757 mmHg 67%
    05:00 +21°C° 0 mm 0 m/S 757 mmHg 65%
    06:00 +22°C° 0 mm 0 m/S 757 mmHg 63%
    07:00 +23°C° 0 mm 0 m/S 757 mmHg 62%
    08:00 +25°C° 0 mm 0 m/S 757 mmHg 56%
    09:00 +29°C° 0 mm 1 m/S 757 mmHg 50%
    10:00 +31°C° 0 mm 1 m/S 757 mmHg 45%
    11:00 +32°C° 0 mm 1 m/S 757 mmHg 42%
    12:00 +34°C° 0 mm 2 m/S 757 mmHg 39%
    13:00 +34°C° 0 mm 2 m/S 757 mmHg 36%
    14:00 +34°C° 0 mm 2 m/S 756 mmHg 38%
    15:00 +32°C° 0 mm 2 m/S 756 mmHg 40%
    16:00 +32°C° 0 mm 2 m/S 756 mmHg 42%
    17:00 +30°C° 0 mm 2 m/S 756 mmHg 44%
    18:00 +29°C° 0 mm 3 m/S 755 mmHg 46%
    19:00 +27°C° 0 mm 3 m/S 755 mmHg 48%
    20:00 +26°C° 0 mm 2 m/S 756 mmHg 50%
    21:00 +25°C° 0 mm 2 m/S 756 mmHg 52%
    22:00 +24°C° 0 mm 2 m/S 756 mmHg 54%
    23:00 +24°C° 0 mm 2 m/S 756 mmHg 56%
    Mehr zeigen